#timestamp,LO_Frequency,Hit,StdDev 
1576990815.7,286047001.8,P
1576990835.5,286047005.1,P
1576990855.3,286047004.7,P
1576990875.2,286047006.0,Y
1576990895.0,286047001.2,P
1576990895.9,286047001.2,N
1576990915.8,286046998.1,N
1576990935.6,286047000.0,N
1576990955.4,286047000.3,N
1576990975.3,286047002.1,N
1576990995.1,286047002.4,N
1576991015.9,286047002.8,N
1576991035.7,286046998.1,N
1576991055.5,286046998.1,N
1576991075.4,286047000.4,N
1576991095.2,286047002.0,N
1576991115.0,286047001.0,N
1576991115.9,286047001.0,N
1576991135.8,286047002.2,N
1576991155.6,286047003.3,N
1576991175.5,286047004.0,N
1576991195.3,286047001.3,N
1576991215.1,286047002.7,N
1576991235.9,286046998.3,N
1576991255.7,286046998.4,N
1576991275.6,286046999.3,N
1576991295.4,286046999.4,N
1576991315.2,286046998.8,N
1576991335.1,286046999.1,N
1576991336.0,286046999.1,N
1576991355.8,286046998.1,N
1576991375.6,286046999.6,N
1576991395.5,286046996.9,N
1576991415.3,286046999.4,N
1576991435.2,286046998.4,N
1576991455.9,286046999.5,N
1576991475.7,286046997.1,N
1576991495.6,286046997.6,N
1576991515.4,286046995.5,N
1576991535.3,286046996.4,N
1576991555.1,286046994.6,N
1576991556.0,286046994.6,N
1576991575.8,286046992.5,Y
1576991595.7,286046992.3,P
1576991615.5,286046993.6,N
1576991635.3,286046996.4,N
1576991655.2,286046995.3,N
1576991675.0,286046993.5,N
1576991675.9,286046993.5,N
1576991695.8,286046995.0,N
1576991715.6,286046997.3,N
1576991735.4,286046996.9,N
1576991755.3,286046997.0,N
1576991775.1,286046994.9,N
1576991795.9,286046995.9,N
1576991815.7,286046996.3,N
1576991835.5,286046996.2,N
1576991855.4,286046999.4,N
1576991875.2,286047000.9,N
1576991895.0,286047000.9,N
1576991895.9,286047000.9,N
1576991915.8,286047000.4,N
1576991935.6,286046999.6,N
1576991955.5,286046996.6,N
1576991975.3,286046995.2,N
1576991995.1,286046994.3,N
1576992015.9,286046994.4,N
1576992035.7,286046996.3,N
1576992055.5,286046993.4,N
1576992075.4,286046995.3,N
1576992095.2,286046998.0,N
1576992115.1,286046995.9,N
1576992116.0,286046995.9,N
1576992135.8,286046994.9,N
1576992155.6,286046997.2,N
1576992175.5,286046996.8,N
1576992195.3,286046997.4,N
1576992215.1,286046994.9,N
1576992235.9,286046995.8,N
1576992255.7,286046995.5,N
1576992275.6,286046995.2,N
1576992295.4,286046996.1,N
1576992315.2,286046994.9,N
1576992335.1,286046999.6,N
1576992336.0,286046999.6,N
1576992355.8,286046997.5,N
1576992375.6,286047001.1,N
1576992395.5,286046998.1,N
1576992415.3,286046998.4,N
1576992435.2,286046998.7,N
1576992455.9,286046999.2,N
1576992475.7,286046998.0,N
1576992495.6,286046997.4,N
1576992515.4,286046997.6,N
1576992535.3,286046995.9,N
1576992555.1,286046994.3,Y
1576992556.0,286046994.3,P
1576992575.8,286046996.6,N
1576992595.7,286046997.8,N
1576992615.5,286046995.0,Y
1576992635.4,286046998.2,P
1576992655.2,286047000.2,N
1576992675.0,286047002.5,N
1576992675.9,286047002.5,N
1576992695.8,286047005.9,N
1576992715.6,286047006.0,N
1576992735.4,286047004.7,N
1576992755.3,286047002.0,N
1576992775.1,286047000.2,N
1576992795.9,286047001.0,N
1576992815.7,286047000.9,N
1576992835.5,286046999.9,N
1576992855.4,286046999.3,N
1576992875.2,286046997.3,N
1576992895.0,286046993.4,N
1576992895.9,286046993.4,N
1576992915.8,286046994.6,N
1576992935.6,286046990.4,N
1576992955.5,286046991.1,N
1576992975.3,286046990.8,N
1576992995.1,286046991.3,N
1576993015.9,286046989.3,N
1576993035.7,286046987.1,N
1576993055.5,286046987.4,N
1576993075.4,286046988.3,N
1576993095.2,286046987.3,N
1576993115.1,286046988.2,N
1576993116.0,286046988.2,N
1576993135.8,286046985.5,N
1576993155.6,286046988.0,N
1576993175.5,286046987.8,N
1576993195.3,286046986.9,N
1576993215.1,286046989.5,N
1576993235.9,286046986.9,N
1576993255.7,286046987.5,N
1576993275.6,286046985.3,N
1576993295.4,286046985.5,N
1576993315.2,286046985.9,N
1576993335.1,286046985.3,N
1576993336.0,286046985.3,Y
1576993355.8,286046995.8,P
1576993375.7,286046995.7,N
1576993395.5,286046997.3,N
1576993415.3,286046995.4,N
1576993435.2,286046996.0,N
1576993455.0,286046996.4,N
1576993455.9,286046996.4,N
1576993475.7,286046993.8,Y
1576993495.6,286046999.6,P
1576993515.4,286046999.2,N
1576993535.3,286046996.5,N
1576993555.1,286046999.6,N
1576993575.8,286046997.0,N
1576993595.7,286046997.1,N
1576993615.5,286046999.6,N
1576993635.4,286046996.8,N
1576993655.2,286046998.6,N
1576993675.0,286046999.4,N
1576993675.9,286046999.4,N
1576993695.8,286046999.4,N
1576993715.6,286046998.7,N
1576993735.4,286046997.1,N
1576993755.3,286046998.3,N
1576993775.1,286046998.1,N
1576993795.9,286046999.9,N
1576993815.7,286046999.8,N
1576993835.5,286046999.7,N
1576993855.4,286047000.1,N
1576993875.2,286047001.9,N
1576993895.0,286047001.6,N
1576993895.9,286047001.6,N
1576993915.8,286047001.9,N
1576993935.6,286046999.7,N
1576993955.5,286046999.7,N
1576993975.3,286046998.9,N
1576993995.1,286046997.1,N
1576994015.9,286046996.3,N
1576994035.7,286046997.9,N
1576994055.5,286046997.7,N
1576994075.4,286046995.6,N
1576994095.2,286046994.2,Y
1576994115.1,286046995.6,P
1576994116.0,286046995.6,N
1576994135.8,286046995.3,P
1576994155.6,286046992.3,Y
1576994175.5,286046996.1,P
1576994195.3,286046996.0,P
1576994215.2,286046995.2,P
1576994235.9,286046995.3,Y
1576994255.7,286046999.9,P
1576994275.6,286047001.5,N
1576994295.4,286047004.8,N
1576994315.3,286047005.5,N
1576994335.1,286047003.1,N
1576994336.0,286047003.1,N
1576994355.8,286047002.9,N
1576994375.7,286047002.9,N
1576994395.5,286047001.8,N
